Dewpoint
65 66 66 66 66 67 69 69 69 70 70 71 72 72 72 72 72 72 73 72 72 71
68 67 67 67 68 68 70 70 69 69 69 70 72 72 72 71 71 72 73 72 72 72
67 69 70 68 68 69 69 69 69 69 69 69 71 72 72 72 72 72 72 73 72 72
65 66 68 70 70 68 68 68 68 68 68 68 69 71 72 71 71 72 72 72 72 72
64 64 66 67 70 71 69 68 68 69 70 70 70 71 71 71 72 72 71 72 72 72
66 65 65 66 68 71 71 70 69 68 69 70 70 71 72 72 72 72 72 72 72 72
67 68 68 67 67 68 70 70 70 69 69 70 71 72 72 72 72 72 73 73 72 72
69 69 70 70 69 69 69 70 69 69 70 70 71 71 72 72 72 73 73 73 73 73
69 70 71 71 71 71 70 70 70 69 69 70 71 71 72 72 73 73 73 73 74 74
68 68 69 70 71 71 71 71 69 69 69 69 69 70 70 72 72 73 73 73 73 74
68 69 69 69 70 70 71 71 71 69 69 68 68 68 69 70 72 73 73 73 73 73
65 65 66 67 68 68 68 69 70 70 69 69 69 68 67 68 71 71 72 73 73 73
71 70 66 64 64 66 67 67 68 68 69 69 69 69 68 68 70 71 72 69 60 60
67 67 69 72 72 68 65 64 65 66 67 68 68 70 68 67 71 72 69 61 58 59
Wind_Speed
21 20 20 19 17 13 15 17 15 18 17 17 14 14 10 9 9 8 8 8 7 5
20 21 21 20 16 15 13 14 15 17 19 16 16 14 14 13 12 9 9 8 8 8
22 20 19 19 21 19 16 13 14 16 16 15 16 15 14 14 12 13 11 9 8 9
21 21 20 21 20 22 18 17 16 16 17 18 18 16 17 19 17 15 13 11 11 13
22 21 22 22 20 17 21 19 19 17 17 17 16 16 19 20 17 18 17 17 13 13
21 21 24 24 21 18 21 21 19 18 20 19 18 17 18 20 20 19 19 20 18 19
25 25 24 22 22 22 21 21 21 21 19 19 18 19 19 20 19 20 20 21 20 20
25 23 21 21 22 21 21 24 26 21 19 18 19 19 21 21 21 20 20 20 21 20
21 20 22 21 21 21 23 22 22 23 21 20 22 21 25 24 21 20 20 22 23 21
21 22 23 21 18 21 24 21 24 25 23 24 24 25 28 30 22 21 22 24 22 18
20 21 17 18 21 21 20 22 23 22 23 23 24 26 29 31 25 21 24 23 22 19
18 20 19 22 22 22 19 21 23 22 23 25 26 28 31 28 24 24 25 21 19 16
5 8 16 20 21 20 21 24 21 24 24 25 28 23 27 28 20 20 19 5 20 29
4 2 5 8 11 15 19 20 22 22 20 20 17 22 23 27 21 20 8 14 16 21
Wind_Direction
205 204 211 219 221 218 215 218 218 213 218 224 229 229 222 224 228 234 241 250 256 271
204 205 207 214 221 221 220 225 219 216 218 221 227 229 221 227 233 234 240 254 264 246
204 207 208 209 212 215 223 223 219 221 225 224 225 224 218 228 232 235 241 245 250 249
208 210 213 215 216 216 220 223 221 222 225 226 226 223 219 225 229 233 241 241 242 243
206 209 214 219 220 216 223 224 224 221 224 229 228 220 219 221 220 223 229 233 236 239
208 208 213 217 218 218 224 229 227 224 228 229 228 223 219 219 219 223 227 230 228 236
206 209 213 214 217 218 219 229 232 231 231 227 222 221 218 219 220 222 226 229 230 236
211 212 213 212 213 215 215 225 235 235 234 226 221 220 219 218 222 223 226 231 234 235
208 207 211 212 211 213 218 222 227 234 229 221 227 224 216 214 219 222 223 231 237 232
206 209 212 210 206 216 221 224 226 230 231 231 232 227 219 215 217 218 223 229 236 236
201 212 214 212 216 220 219 222 226 231 232 234 238 233 226 219 217 218 224 228 233 231
205 217 217 220 223 226 221 226 230 230 231 231 238 230 227 217 219 224 230 230 229 228
129 216 234 235 232 231 226 231 230 235 234 233 242 237 227 214 217 225 231 89 80 70
28 323 266 267 259 244 238 240 241 240 241 241 240 237 223 211 206 215 182 126 110 109